Location: Pedholt
(56.0260°N, 10.2097°E)
Time: 20:30:41
(UTC+00:00)

SR - Pass Details

Date: 03 August 2021
Orbit: 581 x 873 km, 66.7° (Epoch: 27 September)

Event Time Altitude Azimuth Distance (km) Brightness Sun altitude
Rises 14:06:03 0° 312° (NW) 3,139 ? 40.9°
Reaches altitude 10° 14:08:51 10° 300° (WNW) 2,159 ? 40.6°
Maximum altitude 14:12:43 24° 247° (WSW) 1,368 ? 40.1°
Drops below altitude 10° 14:16:20 10° 194° (SSW) 2,011 ? 39.7°
Sets 14:18:51 0° 180° (S) 2,874 ? 39.4°
